STARLINK-5817, 55779

Orbit data source: Space-Track

STARLINK-5817, 55779 is a payload satellite owned by SpaceX/Seattle (US) in LEO that was launched on Fri, 03 Mar 2023 UTC via an FALCON 9 launch vehicle from the Air Force Western Test Range (AFWTR). Payload-class satellites include a variety of spacecraft equipped with specific instruments for various scientific and technological missions. These include communications satellites like Starlink; space stations such as the ISS; scientific satellites like the Hubble; Earth observation satellites from companies like Planet Labs, Umbra, and HawkEye 360; GPS; miniature CubeSats for education and research; and military/defense satellites.

Loading next visibility...
Identifier
55779, 2023-028AQ
Orbit
LEO
Country
Flag of USUS
Related business
Manufacturer
SpaceX/Seattle
Mission
Operational Commercial Communications
Bus & Motor
STARLINK, Unknown motor
Mass
305 kg wet, ~290 kg dry
Launch date (UTC)
2023-03-03 (3 years ago)
Launch vehicle
FALCON 9
Launch site
Air Force Western Test Range (AFWTR)
Object type
Payload
Rocket body
Debris
Shape & HBR
Box + 1 Pan, 10.1 m
Radar Cross Section
11.087 m², Large (>1 m²)

Expand to show TLE details & history
Last TLE update: 2 days ago

TLE from 2 days ago
0 STARLINK-5817
1 55779U 23028AQ  26171.45023801 -.00000909  00000-0 -68383-4 0  9990
2 55779  70.0003 305.1577 0003229 269.1418  90.9371 14.98323760182429
Epoch: 2026-06-20T10:48Z
TLE epoch observation values (Epoch: 2026-06-20T10:48:20.564Z)
Latitude
-0.00001°
Longitude
-125.59267°
Altitude
574.536 km
Speed
7.574 km/s
True Right ascension
20h 20m 37s
True Declination
0° 00' 00"
Sunlit
Object was in full shadow at epoch
Visualization orbit readout
Latitude
Unknown
Longitude
Unknown
Altitude
Unknown
Speed
Unknown
Apparent Right ascension
Unknown
Apparent Declination
Unknown
Sunlit
N/A
Visualization observer readout
Local Sidereal Time
23:08:46
Azimuth
Unknown
Elevation
Unknown
Doppler factor
Unknown
Orbital elements
Apogee altitude
572.267 km
Perigee altitude
567.78 km
Semi-major axis
6,948.16 km
Eccentricity
0.00032
Inclination
70.0003°
RAAN
305.1577°
Arg. of periapsis
269.1418°
True anomaly
90.9741°
Mean anomaly
90.9371°
Eccentric anomaly
90.9556°
Mean motion
3.74747 °/min
Orbital period
96.06 mins
BSTAR
-0.000068383
Loading maneuver chart data...
Computing Atmospheric mass density...

Documentation

Showing up to 5 results
|